Lakeville, MN

11:54 PM CDT on April 20, 2018 (GMT -0500)
Airlake

Weather History for KLVN - February, 2014

Change the Weather History Date:

Tuesday, February 11, 2014

  Actual Average Record
Temperature  
Mean Temperature -6 °F -  
Max Temperature 10 °F 24 °F 55 °F (1961)
Min Temperature -23 °F 6 °F -25 °F (1981)
Degree Days  
Heating Degree Days 72    
Moisture  
Dew Point -10 °F    
Average Humidity 74    
Maximum Humidity 85    
Minimum Humidity 61    
Precipitation  
Precipitation 0.00 in - - ()
Sea Level Pressure  
Sea Level Pressure 30.27 in    
Wind  
Wind Speed 4 mph (South)    
Max Wind Speed 16 mph    
Max Gust Speed 22 mph    
Visibility 10 miles    
Events      
Averages and records for this station are not official NWS values.
T = Trace of Precipitation, MM = Missing Value Source: NWS Daily Summary

Daily Weather History Graph

Daily Weather History Graph

Search for Another Location

Airport or City:

Astronomy

Feb. 11, 2014 Rise Set
Actual Time 7:18 AM CST 5:36 PM CST
Civil Twilight 6:48 AM CST 6:06 PM CST
Nautical Twilight 6:14 AM CST 6:40 PM CST
Astronomical Twilight 5:40 AM CST 7:14 PM CST
Moon 2:53 PM CST (2/11) 4:59 AM CST (2/11)
Length of Visible Light 11h 17m
Length of Day
10h 17m
Waxing Gibbous, 91% of the Moon is Illuminated
Feb 11
Waxing Gibbous
Feb 14
Full
Feb 22
Last Quarter
Mar 1
New
Mar 8
First Quarter

Hourly Weather History & Observations

Time (CST) Temp. Windchill Dew Point Humidity Pressure Visibility Wind Dir Wind Speed Gust Speed Precip Events Conditions
12:01 AM -14.8 °F - -20.2 °F 77% 30.45 in 10.0 mi Calm Calm - N/A   Clear
12:21 AM -16.6 °F - -20.2 °F 84% 30.45 in 10.0 mi Calm Calm - N/A   Clear
12:41 AM -16.6 °F - -20.2 °F 84% 30.45 in 10.0 mi Calm Calm - N/A   Clear
1:01 AM -18.4 °F -28.9 °F -23.8 °F 76% 30.45 in 10.0 mi SW 3.5 mph - N/A   Clear
1:21 AM -18.4 °F - -23.8 °F 76% 30.45 in 10.0 mi Calm Calm - N/A   Clear
1:42 AM -20.2 °F - -23.8 °F 83% 30.44 in 10.0 mi Calm Calm - N/A   Clear
2:01 AM -20.2 °F - -25.6 °F 76% 30.44 in 10.0 mi Calm Calm - N/A   Clear
2:21 AM -18.4 °F - -23.8 °F 76% 30.44 in 10.0 mi Calm Calm - N/A   Clear
2:42 AM -20.2 °F - -25.6 °F 76% 30.43 in 10.0 mi Calm Calm - N/A   Clear
3:01 AM -20.2 °F - -25.6 °F 76% 30.43 in 10.0 mi Calm Calm - N/A   Clear
3:21 AM -20.2 °F - -25.6 °F 76% 30.42 in 10.0 mi Calm Calm - N/A   Clear
3:42 AM -23.8 °F - -27.4 °F 83% 30.43 in 10.0 mi Calm Calm - N/A   Clear
4:01 AM -20.2 °F - -23.8 °F 83% 30.43 in 10.0 mi Calm Calm - N/A   Clear
4:21 AM -20.2 °F - -25.6 °F 76% 30.42 in 10.0 mi Calm Calm - N/A   Clear
4:41 AM -20.2 °F - -25.6 °F 76% 30.42 in 10.0 mi Calm Calm - N/A   Clear
5:01 AM -23.8 °F - -29.2 °F 76% 30.42 in 10.0 mi Calm Calm - N/A   Clear
5:22 AM -20.2 °F - -25.6 °F 76% 30.42 in 10.0 mi Calm Calm - N/A   Clear
5:41 AM -23.8 °F - -27.4 °F 83% 30.42 in 10.0 mi Calm Calm - N/A   Clear
6:01 AM -23.8 °F - -29.2 °F 76% 30.42 in 10.0 mi Calm Calm - N/A   Clear
6:22 AM -20.2 °F - -25.6 °F 76% 30.40 in 10.0 mi Calm Calm - N/A   Clear
6:41 AM -23.8 °F - -29.2 °F 76% 30.39 in 10.0 mi Calm Calm - N/A   Clear
7:01 AM -22.0 °F - -27.4 °F 76% 30.39 in 10.0 mi Calm Calm - N/A   Clear
7:21 AM -18.4 °F -28.9 °F -23.8 °F 76% 30.38 in 10.0 mi South 3.5 mph - N/A   Clear
7:41 AM -18.4 °F - -23.8 °F 76% 30.39 in 10.0 mi Calm Calm - N/A   Clear
8:02 AM -20.2 °F - -23.8 °F 83% 30.39 in 10.0 mi Calm Calm - N/A   Clear
8:21 AM -20.2 °F - -23.8 °F 83% 30.37 in 10.0 mi Calm Calm - N/A   Clear
8:41 AM -18.4 °F - -22.0 °F 84% 30.36 in 10.0 mi Calm Calm - N/A   Clear
9:02 AM -9.4 °F -22.7 °F -13.0 °F 84% 30.36 in 10.0 mi SSE 5.8 mph - N/A   Clear
9:21 AM -7.6 °F -20.6 °F -11.2 °F 84% 30.36 in 10.0 mi SSE 5.8 mph - N/A   Clear
9:41 AM -5.8 °F -16.7 °F -9.4 °F 84% 30.35 in 10.0 mi SSE 4.6 mph - N/A   Clear
10:01 AM -4.0 °F -16.3 °F -7.6 °F 85% 30.35 in 10.0 mi South 5.8 mph - N/A   Clear
10:21 AM -0.4 °F -13.4 °F -4.0 °F 85% 30.35 in 10.0 mi South 6.9 mph - N/A   Clear
10:41 AM 1.4 °F -15.3 °F -5.8 °F 72% 30.34 in 10.0 mi South 11.5 mph - N/A   Clear
11:02 AM 3.2 °F -14.6 °F -5.8 °F 66% 30.33 in 10.0 mi South 13.8 mph - N/A   Clear
11:21 AM 3.2 °F -15.9 °F -5.8 °F 66% 30.33 in 10.0 mi South 16.1 mph - N/A   Clear
11:41 AM 3.2 °F -13.1 °F -5.8 °F 66% 30.32 in 10.0 mi South 11.5 mph - N/A   Clear
12:01 PM 3.2 °F -13.9 °F -5.8 °F 66% 30.31 in 10.0 mi South 12.7 mph 19.6 mph N/A   Clear
12:21 PM 3.2 °F -12.2 °F -5.8 °F 66% 30.29 in 10.0 mi South 10.4 mph 17.3 mph N/A   Clear
12:42 PM 6.8 °F -8.6 °F -4.0 °F 61% 30.27 in 10.0 mi South 11.5 mph - N/A   Clear
1:01 PM 6.8 °F -8.6 °F -2.2 °F 67% 30.26 in 10.0 mi South 11.5 mph - N/A   Clear
1:21 PM 6.8 °F -10.0 °F -2.2 °F 67% 30.24 in 10.0 mi South 13.8 mph 19.6 mph N/A   Clear
1:42 PM 8.6 °F -6.3 °F -2.2 °F 62% 30.22 in 10.0 mi South 11.5 mph 19.6 mph N/A   Clear
2:01 PM 8.6 °F -4.7 °F -2.2 °F 62% 30.21 in 10.0 mi South 9.2 mph 16.1 mph N/A   Clear
2:21 PM 8.6 °F -7.7 °F -2.2 °F 62% 30.20 in 10.0 mi South 13.8 mph 18.4 mph N/A   Clear
2:42 PM 8.6 °F -4.7 °F -2.2 °F 62% 30.20 in 10.0 mi SSE 9.2 mph - N/A   Clear
3:01 PM 8.6 °F -6.3 °F -2.2 °F 62% 30.19 in 10.0 mi SSE 11.5 mph - N/A   Clear
3:21 PM 8.6 °F -6.3 °F -0.4 °F 67% 30.18 in 10.0 mi SSE 11.5 mph - N/A   Clear
3:42 PM 8.6 °F -3.7 °F -2.2 °F 62% 30.17 in 10.0 mi SSE 8.1 mph - N/A   Clear
4:01 PM 8.6 °F -4.7 °F -2.2 °F 62% 30.16 in 10.0 mi South 9.2 mph - N/A   Clear
4:21 PM 6.8 °F -8.6 °F -2.2 °F 67% 30.15 in 10.0 mi SSE 11.5 mph - N/A   Scattered Clouds
4:42 PM 6.8 °F -8.6 °F -0.4 °F 72% 30.13 in 10.0 mi SSE 11.5 mph - N/A   Overcast
5:01 PM 6.8 °F -9.3 °F -0.4 °F 72% 30.12 in 10.0 mi SSE 12.7 mph - N/A   Overcast
5:21 PM 6.8 °F -7.8 °F -0.4 °F 72% 30.12 in 10.0 mi SSE 10.4 mph 18.4 mph N/A   Overcast
5:42 PM 6.8 °F -7.8 °F -0.4 °F 72% 30.10 in 10.0 mi SSE 10.4 mph - N/A   Overcast
6:01 PM 6.8 °F -8.6 °F -0.4 °F 72% 30.10 in 10.0 mi SSE 11.5 mph - N/A   Overcast
6:21 PM 6.8 °F -8.6 °F -0.4 °F 72% 30.09 in 10.0 mi SSE 11.5 mph - N/A   Overcast
6:41 PM 6.8 °F -6.9 °F -0.4 °F 72% 30.09 in 10.0 mi SSE 9.2 mph - N/A   Overcast
7:01 PM 8.6 °F -6.3 °F 1.4 °F 73% 30.08 in 10.0 mi South 11.5 mph - N/A   Overcast
7:21 PM 8.6 °F -7.7 °F 1.4 °F 73% 30.07 in 10.0 mi SSE 13.8 mph 18.4 mph N/A   Overcast
7:41 PM 8.6 °F -7.0 °F 1.4 °F 73% 30.06 in 10.0 mi South 12.7 mph 17.3 mph N/A   Overcast
8:01 PM 8.6 °F -4.7 °F 1.4 °F 73% 30.07 in 10.0 mi South 9.2 mph - N/A   Overcast
8:21 PM 8.6 °F -5.5 °F 1.4 °F 73% 30.06 in 10.0 mi South 10.4 mph - N/A   Overcast
8:41 PM 8.6 °F -4.7 °F 1.4 °F 73% 30.08 in 10.0 mi South 9.2 mph - N/A   Overcast
9:01 PM 8.6 °F -7.7 °F 1.4 °F 73% 30.08 in 10.0 mi South 13.8 mph - N/A   Overcast
9:21 PM 8.6 °F -8.3 °F 1.4 °F 73% 30.07 in 10.0 mi South 15.0 mph 21.9 mph N/A   Overcast
9:41 PM 8.6 °F -6.3 °F 1.4 °F 73% 30.08 in 10.0 mi South 11.5 mph - N/A   Overcast
10:01 PM 8.6 °F -6.3 °F 1.4 °F 73% 30.07 in 10.0 mi South 11.5 mph 18.4 mph N/A   Overcast
10:22 PM 8.6 °F -4.7 °F 1.4 °F 73% 30.06 in 10.0 mi South 9.2 mph 16.1 mph N/A   Scattered Clouds
10:41 PM 8.6 °F -6.3 °F 1.4 °F 73% 30.07 in 10.0 mi South 11.5 mph - N/A   Mostly Cloudy
11:01 PM 8.6 °F -6.3 °F 3.2 °F 79% 30.06 in 10.0 mi South 11.5 mph 16.1 mph N/A   Scattered Clouds
11:22 PM 10.4 °F -3.3 °F 3.2 °F 73% 30.05 in 10.0 mi South 10.4 mph 16.1 mph N/A   Clear
11:41 PM 10.4 °F -2.4 °F 3.2 °F 73% 30.05 in 10.0 mi South 9.2 mph - N/A   Scattered Clouds